TimePDT,TemperatureF,Dew PointF,Humidity,Sea Level PressureIn,VisibilityMPH,Wind Direction,Wind SpeedMPH,Gust SpeedMPH,PrecipitationIn,Events,Conditions,WindDirDegrees,DateUTC
12:53 AM,32.0,18.0,56,30.11,10.0,Calm,Calm,-,N/A,,Clear,0,2013-10-23 07:53:00
1:53 AM,30.9,17.1,57,30.11,10.0,Calm,Calm,-,N/A,,Clear,0,2013-10-23 08:53:00
2:53 AM,30.0,17.1,59,30.09,10.0,Calm,Calm,-,N/A,,Clear,0,2013-10-23 09:53:00
3:53 AM,28.9,18.0,64,30.09,10.0,Calm,Calm,-,N/A,,Clear,0,2013-10-23 10:53:00
4:53 AM,28.9,17.1,61,30.10,10.0,Calm,Calm,-,N/A,,Clear,0,2013-10-23 11:53:00
5:53 AM,28.0,18.0,66,30.14,10.0,South,3.5,-,N/A,,Clear,190,2013-10-23 12:53:00
6:53 AM,27.0,18.0,69,30.15,10.0,South,3.5,-,N/A,,Clear,190,2013-10-23 13:53:00
7:53 AM,27.0,18.0,69,30.18,10.0,Calm,Calm,-,N/A,,Clear,0,2013-10-23 14:53:00
8:53 AM,34.0,19.9,56,30.17,10.0,Calm,Calm,-,N/A,,Clear,0,2013-10-23 15:53:00
9:53 AM,48.9,19.9,32,30.13,10.0,Calm,Calm,-,N/A,,Clear,0,2013-10-23 16:53:00
10:53 AM,60.1,23.0,24,30.10,10.0,NE,3.5,-,N/A,,Clear,40,2013-10-23 17:53:00
11:53 AM,62.1,24.1,23,30.09,10.0,Variable,4.6,-,N/A,,Clear,0,2013-10-23 18:53:00
12:53 PM,64.0,24.1,22,30.06,10.0,Variable,5.8,-,N/A,,Clear,0,2013-10-23 19:53:00
1:53 PM,66.9,25.0,21,30.04,10.0,Variable,3.5,-,N/A,,Clear,0,2013-10-23 20:53:00
2:53 PM,66.0,25.0,21,30.03,10.0,North,5.8,-,N/A,,Clear,10,2013-10-23 21:53:00
3:53 PM,66.0,24.1,20,30.02,10.0,Variable,4.6,-,N/A,,Clear,0,2013-10-23 22:53:00
4:53 PM,64.0,21.9,20,30.02,10.0,NNE,4.6,-,N/A,,Clear,20,2013-10-23 23:53:00
5:53 PM,55.9,21.9,27,30.05,10.0,Calm,Calm,-,N/A,,Clear,0,2013-10-24 00:53:00
6:53 PM,50.0,21.0,32,30.08,10.0,Calm,Calm,-,N/A,,Clear,0,2013-10-24 01:53:00
7:53 PM,46.0,19.9,35,30.12,10.0,Variable,3.5,-,N/A,,Clear,0,2013-10-24 02:53:00
8:53 PM,41.0,19.0,41,30.12,10.0,Calm,Calm,-,N/A,,Clear,0,2013-10-24 03:53:00
9:53 PM,37.9,19.0,47,30.09,10.0,South,3.5,-,N/A,,Clear,190,2013-10-24 04:53:00
10:53 PM,35.1,19.0,52,30.08,10.0,SSW,3.5,-,N/A,,Clear,200,2013-10-24 05:53:00
11:53 PM,33.1,18.0,54,30.08,10.0,SSW,3.5,-,N/A,,Clear,210,2013-10-24 06:53:00